Weather History for KEKQ - November, 2012

Change the Weather History Date:

Thursday, November 1, 2012

  Actual Average Record
Temperature  
Mean Temperature 40 °F -  
Max Temperature 55 °F 69 °F 82 °F (1982)
Min Temperature 24 °F 46 °F 24 °F (2012)
Degree Days  
Heating Degree Days 26    
Moisture  
Dew Point 26 °F    
Average Humidity 64    
Maximum Humidity 96    
Minimum Humidity 24    
Precipitation  
Precipitation 0.00 in - - ()
Sea Level Pressure  
Sea Level Pressure 29.98 in    
Wind  
Wind Speed 4 mph (West)    
Max Wind Speed 13 mph    
Max Gust Speed -    
Visibility 10 miles    
Events      
Averages and records for this station are not official NWS values.
T = Trace of Precipitation, MM = Missing Value Source: NWS Daily Summary

Daily Weather History Graph

Daily Weather History Graph

Search for Another Location

Airport or City:

Trip Planner

Search our weather history database for the weather conditions in past years. The results will help you decide how hot, cold, wet, or windy it might be!

Date:

Astronomy

Nov. 01, 2012 Rise Set
Actual Time 7:03 AM CDT 5:41 PM CDT
Civil Twilight 6:36 AM CDT 6:08 PM CDT
Nautical Twilight 6:06 AM CDT 6:39 PM CDT
Astronomical Twilight 5:35 AM CDT 7:09 PM CDT
Moon 7:41 PM CDT 9:32 AM CDT
Length of Visible Light 11h 31m
Length of Day
10h 37m
Waning Gibbous, 93% of the Moon is Illuminated
Nov 1
Waning Gibbous
Nov 6
Last Quarter
Nov 13
New
Nov 20
First Quarter
Nov 28
Full

Hourly Weather History & Observations

Time (CDT) Temp. Windchill Dew Point Humidity Pressure Visibility Wind Dir Wind Speed Gust Speed Precip Events Conditions
12:56 AM 41.9 °F 37.5 °F 32.9 °F 70% 29.95 in - WNW 6.9 mph - N/A   Overcast
1:56 AM 39.9 °F 35.8 °F 32.0 °F 73% 29.95 in - West 5.8 mph - N/A   Mostly Cloudy
2:56 AM 36.0 °F 33.3 °F 30.0 °F 79% 29.95 in - NW 3.5 mph - N/A   Clear
3:56 AM 34.0 °F - 29.1 °F 82% 29.96 in - Calm Calm - N/A   Clear
4:56 AM 28.0 °F - 27.1 °F 96% 29.97 in - Calm Calm - N/A   Clear
5:56 AM 24.1 °F - 23.0 °F 96% 29.99 in - Calm Calm - N/A   Clear
6:56 AM 24.1 °F - 23.0 °F 96% 30.00 in - Calm Calm - N/A   Clear
7:56 AM 30.0 °F - 28.0 °F 92% 30.02 in - Calm Calm - N/A   Clear
8:56 AM 39.9 °F 34.5 °F 29.1 °F 65% 30.02 in - WSW 8.1 mph - N/A   Clear
9:56 AM 43.0 °F 39.5 °F 27.1 °F 54% 30.02 in - Variable 5.8 mph - N/A   Clear
11:56 AM 50.0 °F - 22.1 °F 33% 30.02 in - WNW 9.2 mph - N/A   Mostly Cloudy
12:56 PM 50.0 °F - 23.0 °F 35% 29.99 in - SW 9.2 mph - N/A   Mostly Cloudy
1:56 PM 54.0 °F - 22.1 °F 29% 29.97 in - West 9.2 mph - N/A   Clear
2:56 PM 55.9 °F - 20.1 °F 25% 29.97 in 10.0 mi WNW 12.7 mph - N/A   Clear
3:56 PM 54.9 °F - 18.1 °F 24% 29.96 in 10.0 mi West 11.5 mph - N/A   Clear
4:56 PM 54.0 °F - 20.1 °F 27% 29.97 in 10.0 mi West 6.9 mph - N/A   Clear
5:56 PM 50.9 °F - 19.0 °F 28% 29.97 in 10.0 mi West 5.8 mph - N/A   Partly Cloudy
6:56 PM 36.9 °F - 24.1 °F 60% 29.99 in 10.0 mi Calm Calm - N/A   Clear
7:56 PM 34.0 °F - 27.1 °F 76% 30.00 in 10.0 mi Calm Calm - N/A   Partly Cloudy
8:56 PM 31.1 °F - 27.1 °F 85% 29.99 in 10.0 mi Calm Calm - N/A   Clear
9:56 PM 32.9 °F - 29.1 °F 86% 29.99 in 10.0 mi Calm Calm - N/A   Scattered Clouds
10:56 PM 32.9 °F - 28.0 °F 82% 29.98 in 10.0 mi Calm Calm - N/A   Scattered Clouds
11:56 PM 37.9 °F - 34.0 °F 86% 29.99 in 10.0 mi Calm Calm - N/A   Overcast